FW5345 Weather Reports


time (UTC)temp
F
wind
direction
speed
knots
gust
knots
rain 1hr
in
rain 24hr
in
rain mn
in
humidity
%
barometer
mb
20260507101537 55 260 4.3 16.5 0.00 0.00 0.00 67 1018.6
20260507100049 56 246 2.6 8.7 0.00 0.00 0.00 66 1018.7
20260507093036 56 256 3.5 10.4 0.00 0.00 0.00 65 1018.9
20260507091530 56 258 3.5 8.7 0.00 0.00 0.00 66 1019.0
20260507083033 55 240 1.7 7.8 0.00 0.00 0.00 70 1019.5
20260507081536 56 299 3.5 9.6 0.00 0.00 0.00 70 1019.5
20260507080031 56 298 5.2 11.3 0.00 0.00 0.00 71 1019.5
20260507074536 56 311 4.3 8.7 0.00 0.00 0.00 70 1019.6
20260507071534 56 299 4.3 11.3 0.00 0.00 0.00 69 1019.5
20260507070035 56 289 1.7 7.0 0.00 0.00 0.00 70 1019.5
20260507064538 56 339 2.6 10.4 0.00 0.00 0.00 70 1019.6
20260507063036 57 312 2.6 8.7 0.00 0.00 0.00 69 1019.6
20260507054536 59 310 2.6 7.0 0.00 0.00 0.00 65 1020.0
20260507051535 59 320 1.7 13.9 0.00 0.00 0.00 65 1020.0
20260507050036 58 2 2.6 8.7 0.00 0.00 0.00 66 1020.0
20260507044610 58 4 2.6 7.0 0.00 0.00 0.00 63 1019.9
20260507043036 59 333 2.6 6.1 0.00 0.00 0.00 60 1019.8
20260507041532 59 99 3.5 9.6 0.00 0.00 0.00 60 1019.7
20260507040045 59 74 0.9 4.3 0.00 0.00 0.00 60 1019.7
20260507034532 60 131 2.6 7.0 0.00 0.00 0.00 59 1019.6
20260507033035 61 2 2.6 8.7 0.00 0.00 0.00 59 1019.6
20260507024535 63 291 1.7 8.7 0.00 0.00 0.00 57 1019.7
20260507023109 64 288 4.3 13.9 0.00 0.00 0.00 55 1019.7
20260507021537 65 254 5.2 12.2 0.00 0.00 0.00 53 1019.6
20260507020037 66 288 5.2 13.9 0.00 0.00 0.00 52 1019.3
20260507014533 66 289 4.3 11.3 0.00 0.00 0.00 51 1019.2
20260507013145 67 302 6.1 15.6 0.00 0.00 0.00 49 1019.1
20260507011535 67 300 6.1 13.9 0.00 0.00 0.00 47 1019.1
20260507004531 68 300 6.1 14.8 0.00 0.00 0.00 43 1019.0
20260507003037 70 295 5.2 13.0 0.00 0.00 0.00 42 1019.0
20260507001531 70 283 5.2 13.9 0.00 0.00 0.00 42 1018.9
20260507000034 70 274 4.3 10.4 0.00 0.00 0.00 41 1018.7
20260506234536 71 292 6.1 16.5 0.00 0.00 0.00 40 1018.6
20260506233033 71 296 5.2 12.2 0.00 0.00 0.00 39 1018.5
20260506230038 72 300 6.1 17.4 0.00 0.00 0.00 40 1018.5
20260506224535 72 293 6.1 13.0 0.00 0.00 0.00 40 1018.6
20260506221532 72 291 5.2 14.8 0.00 0.00 0.00 43 1019.0
20260506220038 72 301 6.1 16.5 0.00 0.00 0.00 43 1018.9
20260506214534 71 293 7.0 14.8 0.00 0.00 0.00 43 1018.8
20260506213110 72 301 7.0 15.6 0.00 0.00 0.00 43 1018.7
20260506211534 73 287 5.2 14.8 0.00 0.00 0.00 43 1018.8
20260506210032 72 226 3.5 12.2 0.00 0.00 0.00 44 1018.9
20260506203033 71 309 6.1 12.2 0.00 0.00 0.00 46 1018.9
20260506201536 71 311 5.2 10.4 0.00 0.00 0.00 44 1018.9
20260506194532 71 249 3.5 9.6 0.00 0.00 0.00 47 1018.9
20260506193035 70 252 3.5 11.3 0.00 0.00 0.00 50 1019.1
20260506190037 69 287 4.3 12.2 0.00 0.00 0.00 52 1019.1
20260506184535 69 302 6.1 12.2 0.00 0.00 0.00 52 1018.9
20260506183028 68 300 3.5 7.8 0.00 0.00 0.00 55 1018.9
20260506181530 67 312 5.2 11.3 0.00 0.00 0.00 57 1019.0
20260506180035 67 318 7.0 13.9 0.00 0.00 0.00 56 1019.0
20260506173032 66 5 3.5 7.0 0.00 0.00 0.00 59 1018.7
20260506171554 65 5 3.5 7.8 0.00 0.00 0.00 62 1018.8
20260506170034 64 358 4.3 8.7 0.00 0.00 0.00 63 1018.8
20260506164535 63 11 3.5 8.7 0.00 0.00 0.00 64 1018.9
20260506163035 62 329 6.1 15.6 0.00 0.00 0.00 65 1019.1
20260506161531 62 329 6.1 12.2 0.00 0.00 0.00 68 1019.2
20260506160035 60 351 6.1 12.2 0.00 0.00 0.00 72 1019.1
20260506154530 58 344 3.5 9.6 0.00 0.00 0.00 75 1019.2
20260506153035 57 344 2.6 5.2 0.00 0.00 0.00 77 1019.0
20260506151535 54 83 1.7 3.5 0.00 0.00 0.00 82 1019.0
20260506144535 53 109 1.7 3.5 0.00 0.00 0.00 86 1018.9
20260506143140 51 148 1.7 3.5 0.00 0.00 0.00 91 1018.9
20260506141535 48 146 1.7 2.6 0.00 0.00 0.00 94 1018.6
20260506140037 46 177 1.7 3.5 0.00 0.00 0.00 95 1018.5
20260506134536 45 176 2.6 3.5 0.00 0.00 0.00 95 1018.3
20260506133034 44 162 2.6 4.3 0.00 0.00 0.00 95 1018.2
20260506131537 44 166 2.6 6.1 0.00 0.00 0.00 94 1018.1
20260506124537 45 157 1.7 3.5 0.00 0.00 0.00 94 1017.9
20260506123033 44 146 1.7 2.6 0.00 0.00 0.00 95 1017.7
20260506121608 44 163 2.6 3.5 0.00 0.00 0.00 95 1017.6
20260506120042 44 162 1.7 3.5 0.00 0.00 0.00 95 1017.5
20260506113035 45 146 2.6 6.1 0.00 0.00 0.00 95 1017.2
20260506111537 45 166 2.6 4.3 0.00 0.00 0.00 95 1017.1
20260506110037 45 157 2.6 3.5 0.00 0.00 0.00 94 1017.0
20260506104534 45 157 2.6 3.5 0.00 0.00 0.00 94 1016.9
20260506103109 46 164 2.6 3.5 0.00 0.00 0.00 94 1016.7